Regional Weather Roundup
Issued by NWS Mt. Holly, NJ

Home | Current Version | Previous Version | Text Only | Print | Product List | Glossary On
Versions: 1 2 3 4 5 6 7 8 9 10 11 12 13 14 15 16 17 18 19 20 21 22 23 24 25 26 27
000
ASUS41 KPHI 300512
RWRPHI

REGIONAL WEATHER ROUNDUP
NATIONAL WEATHER SERVICE MOUNT HOLLY NJ
100 AM EDT SAT JUL 30 2016

NOTE:  "FAIR" INDICATES FEW OR NO CLOUDS BELOW 12,000 FEET WITH NO
SIGNIFICANT WEATHER AND/OR OBSTRUCTIONS TO VISIBILITY.

 * = STATION DOES NOT REPORT PRECIPITATION (E.G. RAIN, SNOW, ETC.)
        OR FOG.

NJZ015>026-300600-
SOUTHERN NEW JERSEY

CITY           SKY/WX    TMP DP  RH WIND       PRES   REMARKS
POMONA         CLEAR     73  69  87 S5        29.95F
WILDWOOD*        N/A    N/A N/A N/A MISG        N/A
MILLVILLE      CLEAR     70  68  93 CALM      29.95F
MOUNT HOLLY    CLEAR     73  70  90 VRB3      29.94F
TRENTON        CLOUDY    74  69  85 CALM      29.93S

$$
NJZ001>014-300600-
NORTHERN NEW JERSEY

CITY           SKY/WX    TMP DP  RH WIND       PRES   REMARKS
SUSSEX         MOCLDY    69  68  96 CALM      29.96S
ANDOVER*         N/A     67  65  93 CALM      29.97R
MORRISTOWN     CLOUDY    68  64  88 CALM      29.95R
NEWARK         CLOUDY    77  69  76 W7        29.93R
TETERBORO      PTCLDY    76  70  82 CALM      29.92S
CALDWELL       CLEAR     73  69  87 CALM      29.95R
SOMERVILLE     CLOUDY    72  69  90 CALM      29.92S
ALLAIRE*       PTCLDY    72  70  93 SW6       29.96S
TOMS RIVER*    PTCLDY    70  68  93 CALM      29.96S

$$
PAZ043-044-047-054-055-060>062-066>071-300600-
EASTERN PENNSYLVANIA

CITY           SKY/WX    TMP DP  RH WIND       PRES   REMARKS
PHILADELPHIA   PTCLDY    77  71  82 SW7       29.95F
NORTH PHILA    CLOUDY    78  70  76 CALM      29.95F
BLUE BELL*     CLOUDY    72  68  88 CALM      29.94S
DOYLESTOWN     CLOUDY    69  69 100 CALM      29.94S
QUAKERTOWN*    CLOUDY    72  72 100 CALM      29.97R
PERKASIE*      FAIR      68  68 100 CALM      29.97S FOG
POTTSTOWN      CLOUDY    74  70  87 CALM      29.97S
LANCASTER      MOCLDY    73  69  87 E5        29.95R
COATESVILLE    CLEAR     73  70  88 CALM      29.98S
READING        HVY RAIN  74  70  87 SW9       29.95R FOG
ALLENTOWN      PTCLDY    72  69  90 CALM      29.95S
MOUNT POCONO   CLEAR     63  61  93 CALM      30.02S
HAZLETON       CLOUDY    64  63  94 CALM      30.04S
LEHIGHTON      FAIR      66  66 100 CALM      29.97S FOG
WILKES BARRE   CLEAR     71  64  78 E5        29.98R

$$
DEZALL-MDZ008-012-015-019-020-300600-
DELAWARE AND EASTERN MARYLAND

CITY           SKY/WX    TMP DP  RH WIND       PRES   REMARKS
WILMINGTON     MOCLDY    76  72  87 S7        29.96R
GEORGETOWN     CLEAR     73  72  96 CALM      29.96F FOG
EASTON         CLEAR     77  76  98 S5        29.99S
OCEAN CITY     CLEAR     73  71  93 CALM      29.96S
WALLOPS ISLAND FAIR      77  74  90 CALM      29.96S
CAMBRIDGE      CLEAR     73  72  94 CALM      29.95S

$$
PAZ001-021-NYZ056-072-MDZ011-DCZ001-300600-
OTHER NEARBY LOCATIONS

CITY           SKY/WX    TMP DP  RH WIND       PRES   REMARKS
HARRISBURG     PTCLDY    79  69  71 VRB3      29.94R
STATE COLLEGE  CLEAR     68  64  88 CALM      29.99S
WILLIAMSPORT   PTCLDY    72  65  78 SW3       29.96R
BINGHAMTON     CLEAR     67  54  63 N7        30.02R
NEW YORK CITY  PTCLDY    77  69  76 CALM      29.96R
BALTIMORE      PTCLDY    76  72  87 CALM      29.94S
WASHINGTON DC  FAIR      81  73  76 S3        29.95R

$$




USA.gov is the U.S. government's official web portal to all federal, state and local government web resources and services.